Location: Stara Lesna
(49.1528°N, 20.2911°E)
Time: 18:51:25
(UTC+02:00)

DELTA 2 DEB (DPAF) - Pass Details

Date: 13 July 2020
Orbit: 641 x 647 km, 98.3° (Epoch: 11 August)

Event Time Altitude Azimuth Distance (km) Brightness Sun altitude
Exits shadow 02:21:51 28° 192° (SSW) 1,225 5.0 -15.8°
Maximum altitude 02:24:02 55° 259° (W) 776 4.3 -15.7°
Drops below altitude 10° 02:28:26 10° 338° (NNW) 2,054 7.3 -15.4°
Sets 02:30:42 0° 343° (NNW) 2,968 8.3 -15.2°
